Weather History for Cross City, FL

Change the Weather History Date:

Wednesday, August 28, 2013

  Actual Average Record
Temperature  
Mean Temperature 80 °F 81 °F  
Max Temperature 88 °F 90 °F 96 °F (1998)
Min Temperature 72 °F 71 °F 64 °F (2014)
Degree Days  
Heating Degree Days 0 0  
Month to date heating degree days 0 0  
Since 1 June heating degree days 0 0  
Since 1 July heating degree days 0 0  
Cooling Degree Days 15 16  
Month to date cooling degree days 489 458  
Year to date cooling degree days 1992 1892  
Since 1 June cooling degree days 1457 1413  
Growing Degree Days 30 (Base 50)    
Moisture  
Dew Point 72 °F    
Average Humidity 78    
Maximum Humidity 100    
Minimum Humidity 53    
Precipitation  
Precipitation 0.01 in 0.25 in 2.00 in (2002)
Month to date precipitation 9.82 6.73  
Year to date precipitation 52.72 34.65  
Sea Level Pressure  
Sea Level Pressure 30.03 in    
Wind  
Wind Speed 3 mph (SW)    
Max Wind Speed 13 mph    
Max Gust Speed 21 mph    
T = Trace of Precipitation, MM = Missing Value Source: NWS Daily Summary

Daily Weather History Graph

Daily Weather History Graph

Search for Another Location

Airport:

Trip Planner

Search our weather history database for the weather conditions in past years. The results will help you decide how hot, cold, wet, or windy it might be!

Date:

Astronomy

Aug. 28, 2013 Rise Set
Actual Time 7:07 AM EDT 7:58 PM EDT
Civil Twilight 6:43 AM EDT 8:23 PM EDT
Nautical Twilight 6:14 AM EDT 8:52 PM EDT
Astronomical Twilight 5:44 AM EDT 9:21 PM EDT
Moon 12:26 AM EDT (8/28) 2:23 PM EDT (8/28)
Length of Visible Light 13h 39m
Length of Day
12h 51m
Waning Gibbous, 47% of the Moon is Illuminated
Aug 28
Waning Gibbous
Sep 5
New
Sep 12
First Quarter
Sep 19
Full
Sep 26
Last Quarter

Hourly Weather History & Observations

Time (EDT) Temp. Heat Index Dew Point Humidity Pressure Visibility Wind Dir Wind Speed Gust Speed Precip Events Conditions
12:53 AM 75.0 °F - 73.0 °F 94% 30.04 in - Calm Calm - 0.01 in   Unknown
1:53 AM 73.9 °F - 73.0 °F 97% 30.03 in - Calm Calm - N/A   Unknown
2:53 AM 75.0 °F - 73.0 °F 94% 30.02 in - Calm Calm - N/A   Unknown
3:53 AM 75.0 °F - 73.0 °F 94% 30.01 in - Calm Calm - N/A   Unknown
4:53 AM 73.9 °F - 72.0 °F 93% 30.01 in - Calm Calm - N/A   Unknown
5:53 AM 73.0 °F - 72.0 °F 96% 30.01 in - Calm Calm - N/A   Unknown
6:53 AM 73.0 °F - 71.1 °F 93% 30.02 in - Calm Calm - N/A   Unknown
7:53 AM 73.0 °F - 71.1 °F 93% 30.04 in - Calm Calm - N/A   Unknown
8:53 AM 75.0 °F - 71.1 °F 87% 30.05 in - Calm Calm - N/A   Unknown
9:53 AM 79.0 °F - 72.0 °F 79% 30.06 in - Calm Calm - N/A   Unknown
10:53 AM 84.0 °F 89.6 °F 72.0 °F 67% 30.06 in - SSW 5.8 mph - N/A   Unknown
11:53 AM 84.9 °F 90.7 °F 72.0 °F 65% 30.07 in - SSW 4.6 mph - N/A   Unknown
12:53 PM 87.1 °F 94.5 °F 73.0 °F 63% 30.06 in - SW 9.2 mph - N/A   Unknown
1:53 PM 87.1 °F 92.0 °F 70.0 °F 57% 30.06 in - SW 8.1 mph - N/A   Unknown
2:53 PM 88.0 °F 91.4 °F 68.0 °F 51% 30.03 in - SSW 9.2 mph - N/A   Unknown
3:53 PM 84.9 °F 90.7 °F 72.0 °F 65% 30.01 in - SW 6.9 mph - N/A   Unknown
4:53 PM 87.1 °F 92.8 °F 71.1 °F 59% 30.00 in - Variable 6.9 mph - N/A   Unknown
5:53 PM 84.9 °F 88.8 °F 69.1 °F 59% 29.99 in - WSW 5.8 mph - N/A   Unknown
6:53 PM 84.9 °F 89.4 °F 70.0 °F 61% 29.99 in - West 5.8 mph - N/A   Unknown
7:53 PM 81.0 °F 85.2 °F 72.0 °F 74% 30.00 in - Calm Calm - N/A   Unknown
8:53 PM 78.1 °F - 73.9 °F 87% 30.01 in - Calm Calm - N/A   Unknown
9:53 PM 78.1 °F - 73.9 °F 87% 30.02 in - Calm Calm - N/A   Unknown
10:53 PM 78.1 °F - 73.9 °F 87% 30.03 in - Calm Calm - 0.01 in   Unknown
11:53 PM 77.0 °F - 73.9 °F 90% 30.03 in - Calm Calm - N/A   Unknown